Regional Weather Roundup
Issued by NWS

Home | Current Version | Previous Version | Graphics & Text | Print | Product List | Glossary On
Versions: 1 2 3 4 5 6 7 8 9 10 11 12 13 14 15 16 17 18 19 20 21 22 23 24 25 26 27 28 29 30 31 32 33 34 35 36 37 38 39 40 41 42 43 44 45 46 47 48 49 50
000
ASUS43 KBIS 282359
RWRND

NORTH DAKOTA REGIONAL WEATHER ROUNDUP
NATIONAL WEATHER SERVICE BISMARCK ND
600 PM CST SUN DEC 28 2014

NOTE: "FAIR" INDICATES FEW OR NO CLOUDS BELOW 12,000 FEET WITH NO
SIGNIFICANT WEATHER AND/OR OBSTRUCTIONS TO VISIBILITY.


NDZ001>003-009>011-017-290100-
NORTHWEST NORTH DAKOTA

CITY           SKY/WX    TMP DP  RH WIND       PRES   REMARKS
WILLISTON      CLOUDY     7  -1  70 N14       30.31R WCI -10
6HR MIN TEMP:   7; 6HR MAX TEMP:  11; 6HR PCP: TRACE;

MINOT          MOCLDY    -3  -7  82 N10       30.35R WCI -20
$$

NDZ018>021-031>035-040>046-290100-
SOUTHWEST NORTH DAKOTA

CITY           SKY/WX    TMP DP  RH WIND       PRES   REMARKS
BISMARCK       CLOUDY     6   0  76 NE12      30.29R WCI  -9
6HR MIN TEMP:   6; 6HR MAX TEMP:  10; 6HR PCP: TRACE;

DICKINSON      LGT SNOW  12   7  80 NE13      30.15R WCI  -3
GARRISON         N/A      4  -1  80 NE10      30.28R WCI -11
6HR MIN TEMP:   4; 6HR MAX TEMP:   8;

HETTINGER ARPT LGT SNOW  17  13  84 E12       30.12R FOG     WCI   4
$$

NDZ004>008-012>016-024-026-027-054-290100-
NORTHEAST NORTH DAKOTA

CITY           SKY/WX    TMP DP  RH WIND       PRES   REMARKS
GRAND FORKS    CLEAR     -7 -11  83 N7        30.42R WCI -21
DEVILS LAKE    CLEAR     -6 -15  65 NE3       30.34R
$$

NDZ022-023-025-028>030-036>039-047>053-290100-
SOUTHEAST NORTH DAKOTA

CITY           SKY/WX    TMP DP  RH WIND       PRES   REMARKS
FARGO          CLEAR      0  -7  72 N9        30.39R WCI -15
6HR MIN TEMP:   0; 6HR MAX TEMP:   6;

$$




USA.gov is the U.S. government's official web portal to all federal, state and local government web resources and services.